Location: *
(44.1392°N, 4.8079°E)
Time: 08:03:55
(UTC+00:00)

Cosmos 1125 Rocket - Pass Details

Date: 21 June 2021
Orbit: 757 x 780 km, 74.0° (Epoch: 31 July)

Event Time Altitude Azimuth Distance (km) Brightness Sun altitude
Rises 02:09:40 0° 337° (NNW) 3,245 7.2 -14.5°
Reaches altitude 10° 02:12:03 10° 336° (NNW) 2,318 6.4 -14.3°
Maximum altitude 02:17:18 76° 252° (WSW) 799 3.4 -13.7°
Drops below altitude 10° 02:22:34 10° 167° (SSE) 2,317 5.6 -13.1°
Enters shadow 02:24:02 - 166° (SSE) 2,886 6.1 -13.0°
